[[{"header":{"parameterUnit":"m.s-1","parameterCategory":2,"la1":30.2991,"la2":30.254,"lo1":-89.0895,"lo2":-89.0444,"dy":0.0017,"dx":0.0017,"nx":28,"ny":28,"refTime":"2023-08-05T21:00:00:Z","depth":"0","parameterNumber":2,"parameterNumberName":"U-component_of_CURRENTS"},"data":[0,0,0,0,0,0,0,0,0,0,0,0,0,0,0,0,0,0,0,0,0,0,0,0,0,0,0,0,0,0,0,0,0,0,0,0,0,0,0,0,0,0,0,0,0,0,0,0,0,0,0,0,0,0,0,0,0,0,0.184,0.1839,0,0.1877,0.1878,0.188,0.1967,0.1968,0.1969,0.197,0.1986,0.1985,0.1985,0,0,0,0,0,0,0,0,0,0,0,0,0,0.1868,0.1868,0.184,0.1839,0.1839,0.1877,0.1878,0.188,0.1967,0.1968,0.1969,0.197,0.1986,0.1985,0.1985,0,0,0,0,0,0,0,0,0,0,0,0,0,0.1887,0.1868,0.184,0.1878,0.1881,0.1876,0.1878,0.188,0.1967,0.1968,0.1969,0.197,0.1986,0.1985,0.1985,0.196,0,0,0.1984,0.1984,0,0,0,0,0,0,0,0,0.1885,0.1887,0.1873,0.1875,0.1879,0.1908,0.1894,0.1902,0.1967,0.1947,0.197,0.1971,0.1949,0.1952,0.1973,0.1961,0.1961,0.1984,0.1983,0.1983,0.1983,0,0,0,0,0,0,0,0.1884,0.1886,0.1867,0.1872,0.1875,0.19,0.1906,0.1897,0.195,0.1949,0.1952,0.1937,0.1953,0.1974,0.1974,0.1961,0.1984,0.1983,0.1983,0.1983,0.2051,0.2053,0,0,0,0,0,0,0.1853,0.1884,0.1865,0.1866,0.1872,0.1898,0.1904,0.1907,0.1951,0.1955,0.1936,0.1941,0.1974,0.1975,0.1975,0.2014,0.1983,0.1983,0.1983,0.2049,0.2052,0.2054,0,0,0,0,0,0,0.1854,0.1852,0.1863,0.1866,0.1868,0.1895,0.1899,0.1907,0.1944,0.1939,0.1946,0.1965,0.1975,0.1975,0.1983,0.2012,0.1983,0.1982,0.2047,0.205,0.2053,0.2048,0,0,0,0,0,0,0.1855,0.1853,0.186,0.1864,0.1866,0.1874,0.1896,0.1907,0.1926,0.1934,0.1965,0.1967,0.1976,0.1983,0.1982,0.2011,0.1982,0.2044,0.2048,0.2052,0.2045,0.205,0.2055,0,0,0,0,0,0.1857,0.1867,0.1861,0.1858,0.1871,0.1873,0.1879,0.1909,0.1926,0.1948,0.1965,0.1967,0.2009,0.1983,0.1982,0.2011,0.2042,0.2047,0.2052,0.2043,0.2049,0.2054,0,0,0,0,0,0,0.1896,0.1875,0.1869,0.1877,0.1872,0.1884,0.1897,0.1912,0.1945,0.1948,0.1965,0.1968,0.1998,0.2004,0.1975,0.2051,0.2037,0.2042,0.2032,0.2037,0.2042,0.2046,0.1982,0,0,0,0,0,0.1896,0.189,0.1878,0.1878,0.1876,0.1886,0.1894,0.1903,0.1917,0.1937,0.1954,0.1982,0.2015,0.2022,0.2045,0.2057,0.2074,0.2089,0.2093,0.2097,0.2104,0.216,0.217,0.2069,0.2069,0.2069,0,0,0.1896,0.1891,0.1882,0.1883,0.1884,0.1892,0.1899,0.19,0.1914,0.1925,0.1962,0.1989,0.2023,0.2057,0.2072,0.2062,0.2132,0.2103,0.2105,0.2111,0.2166,0.2175,0.2184,0.2073,0.2072,0.2071,0,0,0.1903,0.1901,0.1902,0.1906,0.1894,0.1895,0.1895,0.1904,0.1923,0.1941,0.1971,0.2012,0.2045,0.2084,0.2108,0.2149,0.2157,0.2168,0.2184,0.2238,0.2245,0.2253,0.2267,0.2275,0.2167,0.2167,0.2167,0,0.1908,0.1909,0.1903,0.1917,0.191,0.1898,0.1901,0.1919,0.1932,0.1943,0.1955,0.2043,0.2068,0.2124,0.2155,0.2158,0.2176,0.215,0.2241,0.2248,0.2256,0.2269,0.2278,0.2167,0.2167,0.2167,0.2167,0,0.1912,0.1924,0.1926,0.1931,0.1935,0.1925,0.1927,0.1938,0.195,0.197,0.2022,0.2063,0.2118,0.2147,0.2164,0.2238,0.2229,0.2237,0.2216,0.2265,0.2276,0.2286,0.2168,0.2168,0.2167,0.2167,0,0,0.1887,0.1917,0.1918,0.1924,0.1932,0.1927,0.1946,0.1954,0.197,0.2007,0.2043,0.2125,0.2147,0.2178,0.2207,0.2262,0.233,0.2275,0.2278,0.227,0.2424,0.2362,0.2367,0.2353,0.2355,0.2357,0.2402,0,0.1884,0.1907,0.192,0.1931,0.1939,0.1939,0.1957,0.197,0.199,0.2024,0.2076,0.2125,0.2156,0.2183,0.2245,0.2311,0.2361,0.2316,0.2395,0.2397,0.2322,0.2379,0.2286,0.2314,0.2411,0.2413,0.2414,0,0.1884,0.1898,0.1911,0.1928,0.1928,0.1933,0.1939,0.1954,0.2002,0.2023,0.2079,0.2118,0.2199,0.2221,0.2349,0.2318,0.2378,0.2428,0.243,0.2384,0.2355,0.2289,0.2328,0.2199,0.243,0.2428,0.2427,0,0.1869,0.1888,0.1891,0.1898,0.1923,0.1921,0.192,0.1957,0.1967,0.2021,0.2044,0.2132,0.2172,0.2275,0.2366,0.237,0.2495,0.2507,0.2503,0.2497,0.244,0.2426,0.235,0.261,0.261,0.261,0.261,0,0.1865,0.1868,0.188,0.1893,0.1883,0.1903,0.1902,0.1923,0.1954,0.1976,0.2038,0.2073,0.2196,0.2271,0.2364,0.2448,0.249,0.2517,0.2518,0.2433,0.2419,0.2321,0.2345,0.2611,0.2611,0.2611,0.261,0,0.1861,0.1873,0.1886,0.1896,0.189,0.1885,0.1876,0.1877,0.1914,0.1943,0.196,0.2039,0.2136,0.2235,0.2385,0.2426,0.2442,0.2543,0.241,0.2395,0.2266,0.2296,0.2211,0.2114,0.2553,0.2552,0.2551,0,0.1848,0.1862,0.1885,0.1872,0.1871,0.1855,0.1841,0.186,0.1865,0.1925,0.1939,0.2023,0.2081,0.2233,0.2338,0.2454,0.2391,0.2408,0.2414,0.2248,0.2284,0.2191,0.2108,0.2331,0.2328,0.2326,0.2324,0,0.1819,0.1844,0.1855,0.1847,0.1827,0.181,0.1794,0.1793,0.1823,0.1848,0.1891,0.1939,0.2073,0.2139,0.2256,0.2326,0.2253,0.2367,0.2249,0.2154,0.2001,0.1909,0.2281,0.2305,0.2307,0.2308,0.231,0.231,0.1776,0.1789,0.1806,0.1789,0.177,0.1749,0.1718,0.1716,0.1719,0.1727,0.1812,0.1835,0.1923,0.2086,0.2128,0.2079,0.2151,0.2041,0.2106,0.2031,0.1893,0.2198,0.2189,0.219,0.2191,0.2192,0.2192,0,0.1697,0.1727,0.1722,0.1708,0.1664,0.1682,0.1663,0.1622,0.1601,0.1637,0.1658,0.1665,0.1712,0.1773,0.1806,0.1786,0.1714,0.1758,0.161,0.1554,0.1866,0.1806,0.1646,0.1646,0.1646,0.1646,0.1647,0.1647,0.1651,0.1645,0.1666,0.159,0.1573,0.1504,0.1486,0.1456,0.146,0.1401,0.1373,0.1394,0.1422,0.1522,0.1481,0.149,0.1347,0.1377,0.134,0.1571,0.16,0.1627,0.1565,0.1359,0.1359,0.0867,0.0864,0.0862]},{"header":{"parameterUnit":"m.s-1","parameterCategory":2,"la1":30.2991,"la2":30.254,"lo1":-89.0895,"lo2":-89.0444,"dy":0.0017,"dx":0.0017,"nx":28,"ny":28,"refTime":"2023-08-05T21:00:00:Z","depth":"0","parameterNumber":3,"parameterNumberName":"V-component_of_CURRENTS"},"data":[0,0,0,0,0,0,0,0,0,0,0,0,0,0,0,0,0,0,0,0,0,0,0,0,0,0,0,0,0,0,0,0,0,0,0,0,0,0,0,0,0,0,0,0,0,0,0,0,0,0,0,0,0,0,0,0,0,0,0.0509,0.0509,0,0.0549,0.055,0.0551,0.0571,0.0571,0.0571,0.057,0.0519,0.0517,0.0516,0,0,0,0,0,0,0,0,0,0,0,0,0,0.044,0.0441,0.0509,0.0509,0.0509,0.0549,0.055,0.0551,0.0571,0.0571,0.0571,0.057,0.0519,0.0518,0.0516,0,0,0,0,0,0,0,0,0,0,0,0,0,0.0477,0.0442,0.0509,0.0522,0.0523,0.0549,0.055,0.0551,0.0571,0.0571,0.057,0.057,0.0519,0.0518,0.0516,0.0514,0,0,0.0511,0.051,0,0,0,0,0,0,0,0,0.0475,0.048,0.052,0.0521,0.0523,0.0552,0.0507,0.0533,0.0571,0.0556,0.057,0.057,0.0519,0.0518,0.0532,0.0511,0.0509,0.0511,0.051,0.0509,0.0508,0,0,0,0,0,0,0,0.0472,0.0478,0.0528,0.052,0.0522,0.0522,0.0528,0.0512,0.054,0.0558,0.0558,0.0558,0.052,0.0534,0.0531,0.0508,0.0511,0.0509,0.0508,0.0508,0.0525,0.0526,0,0,0,0,0,0,0.0462,0.0476,0.0527,0.0529,0.0494,0.0524,0.053,0.0546,0.0542,0.0542,0.0559,0.0559,0.0537,0.0533,0.0529,0.0552,0.0509,0.0507,0.0506,0.0523,0.0525,0.0527,0,0,0,0,0,0,0.0461,0.0467,0.0525,0.05,0.0507,0.0525,0.0543,0.0547,0.0571,0.0544,0.0541,0.058,0.0536,0.0531,0.0528,0.0548,0.0507,0.0505,0.0521,0.0524,0.0526,0.058,0,0,0,0,0,0,0.0459,0.0467,0.0476,0.05,0.0508,0.0547,0.0543,0.0548,0.0569,0.0571,0.0561,0.0555,0.0536,0.053,0.0526,0.0545,0.0504,0.052,0.0523,0.0525,0.0576,0.0583,0.059,0,0,0,0,0,0.0457,0.0474,0.0477,0.0482,0.052,0.0547,0.0552,0.0565,0.0571,0.0586,0.058,0.0556,0.0545,0.053,0.0524,0.0544,0.0518,0.0522,0.0525,0.0573,0.0582,0.059,0,0,0,0,0,0,0.0441,0.0478,0.0482,0.0506,0.0525,0.0549,0.0557,0.0575,0.0587,0.0577,0.0567,0.0561,0.057,0.0552,0.0536,0.056,0.0531,0.0533,0.057,0.0578,0.0584,0.0586,0.0502,0,0,0,0,0,0.0442,0.0469,0.0495,0.0511,0.0519,0.0542,0.0555,0.0563,0.0574,0.0581,0.058,0.0575,0.058,0.0574,0.0569,0.0573,0.0554,0.0586,0.0593,0.0599,0.0599,0.0594,0.06,0.0537,0.0537,0.0537,0,0,0.043,0.046,0.0468,0.051,0.052,0.0543,0.055,0.0564,0.0586,0.0568,0.0593,0.0595,0.0589,0.0601,0.0603,0.0585,0.0608,0.0603,0.0608,0.0605,0.0598,0.0604,0.0609,0.054,0.0539,0.0539,0,0,0.0433,0.0454,0.0477,0.0502,0.0525,0.0539,0.0548,0.0577,0.0591,0.0615,0.0615,0.0634,0.0635,0.0643,0.0646,0.0688,0.0648,0.0687,0.0716,0.0712,0.0716,0.072,0.0706,0.0708,0.0687,0.0687,0.0687,0,0.0418,0.0457,0.0484,0.0519,0.053,0.0542,0.0561,0.0584,0.0611,0.0625,0.0623,0.0664,0.066,0.0689,0.071,0.0703,0.0685,0.0683,0.0719,0.0722,0.0725,0.071,0.0711,0.069,0.0689,0.0689,0.0689,0,0.0441,0.0472,0.0484,0.0533,0.0554,0.0565,0.0593,0.0614,0.0631,0.0658,0.0695,0.0704,0.0729,0.0742,0.0738,0.0767,0.0743,0.073,0.0694,0.0734,0.0716,0.0716,0.0694,0.0693,0.0692,0.0691,0,0,0.0405,0.0484,0.0488,0.0511,0.0557,0.0572,0.0605,0.064,0.0668,0.07,0.074,0.0777,0.0789,0.0794,0.0799,0.0804,0.0819,0.0777,0.0775,0.0756,0.0796,0.0739,0.0734,0.0804,0.0804,0.0805,0.0775,0,0.0407,0.0462,0.0507,0.0543,0.0563,0.0595,0.0632,0.0666,0.0696,0.0738,0.0763,0.0797,0.0806,0.0818,0.083,0.0819,0.0822,0.0827,0.0766,0.0764,0.0702,0.0734,0.0779,0.0753,0.0776,0.0776,0.0776,0,0.0415,0.045,0.0483,0.055,0.0561,0.0589,0.0634,0.0674,0.0734,0.076,0.0802,0.082,0.085,0.0844,0.0848,0.0845,0.0829,0.0818,0.0816,0.0742,0.0708,0.0717,0.0753,0.0757,0.0776,0.0776,0.0776,0,0.0366,0.0436,0.0454,0.0476,0.055,0.0571,0.061,0.0674,0.0711,0.0769,0.0794,0.0834,0.0842,0.0841,0.083,0.0833,0.0815,0.0812,0.0748,0.0743,0.0759,0.0755,0.0785,0.0811,0.0811,0.0811,0.0812,0,0.0356,0.0376,0.0432,0.0447,0.0479,0.0541,0.0587,0.0639,0.0704,0.075,0.0798,0.0827,0.0839,0.0835,0.0827,0.0782,0.0809,0.0755,0.0734,0.0779,0.0777,0.076,0.0735,0.081,0.0811,0.0811,0.0811,0,0.0315,0.035,0.0381,0.0442,0.0462,0.0485,0.0573,0.0615,0.0675,0.0731,0.0745,0.0806,0.0801,0.0799,0.0785,0.0762,0.0741,0.0711,0.0756,0.074,0.0672,0.0647,0.0598,0.0687,0.0637,0.0636,0.0634,0,0.0307,0.0312,0.0363,0.0385,0.0416,0.0462,0.0507,0.0587,0.0633,0.072,0.0741,0.0756,0.0786,0.0742,0.0709,0.0669,0.0689,0.0659,0.0678,0.0673,0.0632,0.0615,0.0697,0.073,0.0729,0.0729,0.0729,0,0.0283,0.0291,0.0316,0.0358,0.0396,0.045,0.0515,0.0541,0.0636,0.0682,0.074,0.077,0.0746,0.0744,0.0676,0.0652,0.0683,0.0646,0.0651,0.0707,0.0685,0.076,0.0733,0.0726,0.0726,0.0726,0.0726,0.0726,0.0259,0.0267,0.0297,0.034,0.0388,0.0445,0.0486,0.055,0.0616,0.0704,0.0733,0.0805,0.0812,0.0739,0.0681,0.0626,0.0632,0.0634,0.0605,0.0589,0.0675,0.0618,0.0573,0.0572,0.0572,0.0571,0.0571,0,0.0236,0.0255,0.0291,0.0345,0.0392,0.0427,0.0503,0.0546,0.0613,0.0703,0.0766,0.0863,0.0836,0.0793,0.0703,0.0634,0.0685,0.0601,0.064,0.0734,0.07,0.0707,0.0678,0.0678,0.0678,0.0678,0.0678,0.0678,0.0226,0.0244,0.027,0.0336,0.038,0.0441,0.0482,0.0546,0.0622,0.0736,0.0829,0.0915,0.0951,0.0732,0.0632,0.062,0.0684,0.0587,0.0645,0.0643,0.0646,0.065,0.0654,0.0614,0.0614,0.0778,0.0779,0.0779]}],[{"header":{"parameterUnit":"m.s-1","parameterCategory":2,"la1":30.2991,"la2":30.254,"lo1":-89.0895,"lo2":-89.0444,"dy":0.0017,"dx":0.0017,"nx":28,"ny":28,"refTime":"2023-08-05T21:00:00:Z","depth":"2","parameterNumber":2,"parameterNumberName":"U-component_of_CURRENTS"},"data":[0,0,0,0,0,0,0,0,0,0,0,0,0,0,0,0,0,0,0,0,0,0,0,0,0,0,0,0,0,0,0,0,0,0,0,0,0,0,0,0,0,0,0,0,0,0,0,0,0,0,0,0,0,0,0,0,0,0,0.0098,0.01,0,-0.0121,-0.0128,-0.0134,-0.0327,-0.0324,-0.0322,-0.032,-0.002,-0.0014,-0.0008,0,0,0,0,0,0,0,0,0,0,0,0,0,-0.024,-0.0233,0.0098,0.01,0.0101,-0.012,-0.0128,-0.0136,-0.0327,-0.0324,-0.0322,-0.0319,-0.0022,-0.0015,-0.0008,0,0,0,0,0,0,0,0,0,0,0,0,0,-0.0283,-0.0231,0.0098,0.0014,0.0008,-0.0119,-0.0128,-0.0138,-0.0328,-0.0324,-0.0321,-0.0318,-0.0024,-0.0016,-0.0007,-0.0017,0,0,0.0021,0.0025,0,0,0,0,0,0,0,0,-0.028,-0.0277,0.0025,0.002,0.0014,-0.0151,-0.0135,-0.0055,-0.0328,-0.0251,-0.032,-0.0316,0.0014,0.0019,-0.0105,-0.0003,0.001,0.0021,0.0027,0.0031,0.0033,0,0,0,0,0,0,0,-0.0276,-0.0271,-0.0038,0.0028,0.0021,-0.0211,-0.0214,-0.013,-0.0162,-0.0257,-0.026,-0.0209,0.0008,-0.0114,-0.0097,0.0015,0.0021,0.0029,0.0035,0.0038,0.0296,0.0297,0,0,0,0,0,0,-0.0123,-0.0264,-0.003,-0.0039,-0.0074,-0.0201,-0.0207,-0.0141,-0.0174,-0.0166,-0.0211,-0.0216,-0.0131,-0.0107,-0.0085,0.006,0.0031,0.0039,0.0044,0.0294,0.0296,0.0298,0,0,0,0,0,0,-0.013,-0.01,-0.002,-0.0122,-0.0121,-0.0189,-0.012,-0.0146,-0.0242,-0.0136,-0.0128,-0.0269,-0.0128,-0.0098,0.0092,0.0068,0.0043,0.0051,0.0293,0.0295,0.0297,0.0257,0,0,0,0,0,0,-0.0139,-0.0102,-0.0111,-0.0109,-0.0107,-0.0043,-0.0119,-0.0151,-0.0192,-0.0203,-0.0181,-0.0155,-0.0123,0.0079,0.0101,0.008,0.0058,0.0291,0.0294,0.0296,0.0256,0.0257,0.0258,0,0,0,0,0,-0.0151,-0.0181,-0.011,-0.0085,-0.0078,-0.0036,-0.0066,-0.0141,-0.0197,-0.023,-0.0154,-0.0155,0.0108,0.0091,0.0115,0.0095,0.0289,0.0293,0.0296,0.0256,0.0257,0.0258,0,0,0,0,0,0,-0.0314,-0.0196,-0.0122,-0.0101,-0.0014,-0.0048,-0.0127,-0.0135,-0.0149,-0.0128,-0.0087,-0.0051,0.0082,0.0121,0.0098,0.0177,0.0178,0.0186,0.0138,0.014,0.0141,0.0085,0.0066,0,0,0,0,0,-0.0327,-0.0315,-0.0173,-0.0132,-0.0107,-0.0111,-0.014,-0.011,-0.0063,-0.0084,-0.0011,0.0051,0.0092,0.0157,0.0228,0.031,0.0287,0.03,0.0301,0.0301,0.0274,0.0203,0.0192,0.0309,0.0309,0.0309,0,0,-0.0342,-0.0287,-0.0264,-0.0166,-0.0156,-0.0134,-0.0138,-0.0099,-0.0094,-0.0018,0.0002,0.009,0.0125,0.0201,0.0257,0.0248,0.0274,0.0306,0.0305,0.0277,0.0204,0.0192,0.0181,0.0311,0.031,0.031,0,0,-0.036,-0.0332,-0.032,-0.0283,-0.0169,-0.0162,-0.0117,-0.005,-0.0067,0.0047,0.0065,0.0147,0.0262,0.0242,0.0238,0.0291,0.0289,0.0339,0.0291,0.0223,0.021,0.0199,0.0213,0.0203,0.0327,0.0327,0.0327,0,-0.0386,-0.0323,-0.0305,-0.0291,-0.0266,-0.0158,-0.0117,-0.0146,0.0002,0.0034,0.009,0.0176,0.0222,0.0205,0.0223,0.0276,0.0299,0.0276,0.0216,0.0204,0.0193,0.021,0.0199,0.0326,0.0326,0.0326,0.0326,0,-0.0362,-0.0345,-0.0348,-0.0286,-0.0283,-0.0211,-0.0146,-0.0092,-0.0043,-0.0014,0.0074,0.0139,0.0194,0.0192,0.0224,0.0175,0.0243,0.0227,0.0194,0.0177,0.0199,0.0189,0.0324,0.0324,0.0325,0.0325,0,0,-0.0292,-0.032,-0.0309,-0.0291,-0.0259,-0.0212,-0.0216,-0.0147,-0.0128,-0.0022,-0.0017,0.0012,0.0101,0.0103,0.0153,0.0081,0.0033,0.0144,0.0141,0.0128,-0.0025,0.0103,0.0105,0.0032,0.0029,0.0026,0.0042,0,-0.0238,-0.0226,-0.0264,-0.0233,-0.0219,-0.0193,-0.0208,-0.0148,-0.0096,-0.0049,-0.0049,0.0017,0.0039,0.0127,0.0043,0.0058,-0.0001,0.0035,0.002,0.002,0.0107,0.0091,-0.0021,-0.001,0.0031,0.003,0.0028,0,-0.0161,-0.0186,-0.0152,-0.0184,-0.0173,-0.0134,-0.01,-0.0081,-0.006,-0.0016,0.0013,0.0055,0.0021,0.0032,-0.0048,0.0007,-0.001,-0.0044,-0.0045,0.0067,0.0125,0.0006,-0.0031,0.0011,0.0012,0.0013,0.0014,0,-0.0073,-0.0094,-0.0065,-0.0075,-0.0101,-0.0055,-0.0027,-0.0011,0.0013,0.0057,0.0103,0.006,0.0113,0.0011,0.001,-0.0004,-0.0082,-0.013,-0.0051,-0.0038,-0.0149,-0.014,-0.0245,-0.0245,-0.0245,-0.0245,-0.0245,0,0.0001,0.0033,0.0007,0.0021,0.0084,0.0044,0.0131,0.0154,0.0169,0.021,0.0182,0.0213,0.0114,0.0086,0.0012,0.0,-0.0075,-0.0065,-0.0048,-0.0149,-0.0141,-0.0149,-0.0138,-0.0244,-0.0245,-0.0245,-0.0245,0,0.0127,0.0109,0.0125,0.0108,0.0143,0.0206,0.0259,0.0301,0.0321,0.0371,0.0402,0.0356,0.0346,0.0255,0.0135,0.0069,-0.0009,0.0003,-0.0044,-0.0033,0.0073,0.0082,0.0037,0.0041,0.0045,0.0047,0.005,0,0.0222,0.0239,0.0216,0.0253,0.0283,0.0364,0.0427,0.043,0.0449,0.0466,0.0484,0.0508,0.0495,0.0398,0.028,0.0179,0.0147,0.0054,-0.0052,0.007,0.009,0.0094,0.0099,-0.0199,-0.0199,-0.0199,-0.0198,0,0.0344,0.0328,0.0312,0.0394,0.0476,0.0493,0.0577,0.0593,0.059,0.0618,0.0639,0.0628,0.0565,0.0411,0.0339,0.0234,0.0052,0.0063,0.0136,-0.0211,-0.0141,-0.0123,-0.0115,-0.0197,-0.0197,-0.0197,-0.0197,-0.0197,0.0439,0.0443,0.0435,0.0533,0.0596,0.062,0.0646,0.0667,0.0698,0.0669,0.0679,0.0606,0.0388,0.023,0.0196,0.0191,0.0155,0.002,0.0012,0.0005,0.0017,0.0092,0.0087,0.0088,0.0089,0.009,0.0091,0,0.0503,0.0516,0.0587,0.0621,0.068,0.072,0.0731,0.0679,0.07,0.066,0.0638,0.0356,0.0212,0.0128,0.0112,0.0067,-0.002,0.0054,-0.011,-0.0114,-0.0117,-0.0117,-0.008,-0.0079,-0.0078,-0.0077,0,0,0.0542,0.057,0.0596,0.0704,0.0758,0.0802,0.0798,0.071,0.0628,0.0504,0.0435,0.0209,0.0095,-0.0014,-0.0089,-0.0018,-0.0045,-0.0028,0.0084,-0.0113,-0.0113,-0.0189,-0.0198,0,0,0,0,0]},{"header":{"parameterUnit":"m.s-1","parameterCategory":2,"la1":30.2991,"la2":30.254,"lo1":-89.0895,"lo2":-89.0444,"dy":0.0017,"dx":0.0017,"nx":28,"ny":28,"refTime":"2023-08-05T21:00:00:Z","depth":"2","parameterNumber":3,"parameterNumberName":"V-component_of_CURRENTS"},"data":[0,0,0,0,0,0,0,0,0,0,0,0,0,0,0,0,0,0,0,0,0,0,0,0,0,0,0,0,0,0,0,0,0,0,0,0,0,0,0,0,0,0,0,0,0,0,0,0,0,0,0,0,0,0,0,0,0,0,-0.0114,-0.0114,0,-0.0143,-0.0143,-0.0143,-0.0186,-0.0187,-0.0188,-0.0189,-0.0344,-0.0347,-0.035,0,0,0,0,0,0,0,0,0,0,0,0,0,-0.0104,-0.0104,-0.0114,-0.0114,-0.0115,-0.0143,-0.0143,-0.0143,-0.0186,-0.0187,-0.0188,-0.019,-0.0343,-0.0347,-0.0351,0,0,0,0,0,0,0,0,0,0,0,0,0,-0.0116,-0.0104,-0.0113,-0.0142,-0.0145,-0.0143,-0.0143,-0.0143,-0.0186,-0.0187,-0.0189,-0.019,-0.0342,-0.0346,-0.0351,-0.035,0,0,-0.0366,-0.0368,0,0,0,0,0,0,0,0,-0.0115,-0.0116,-0.0137,-0.014,-0.0143,-0.0165,-0.0197,-0.022,-0.0185,-0.0167,-0.0189,-0.0191,-0.0297,-0.0305,-0.0301,-0.0358,-0.0364,-0.0366,-0.0369,-0.0371,-0.0373,0,0,0,0,0,0,0,-0.0114,-0.0115,-0.0122,-0.0137,-0.0141,-0.0156,-0.0159,-0.02,-0.0223,-0.0169,-0.0173,-0.018,-0.0299,-0.0297,-0.0306,-0.0367,-0.0366,-0.037,-0.0373,-0.0375,-0.0371,-0.0369,0,0,0,0,0,0,-0.0114,-0.0114,-0.0121,-0.0124,-0.0136,-0.0155,-0.0158,-0.0154,-0.022,-0.0231,-0.0179,-0.0182,-0.0288,-0.03,-0.0312,-0.0311,-0.0371,-0.0376,-0.0378,-0.0374,-0.0371,-0.0368,0,0,0,0,0,0,-0.0113,-0.0114,-0.012,-0.0122,-0.0125,-0.0154,-0.0149,-0.0154,-0.0174,-0.0227,-0.024,-0.0196,-0.0289,-0.0305,-0.0296,-0.0318,-0.0378,-0.0382,-0.0378,-0.0373,-0.0369,-0.0314,0,0,0,0,0,0,-0.0112,-0.0113,-0.0097,-0.0122,-0.0125,-0.011,-0.0148,-0.0153,-0.0176,-0.0181,-0.0246,-0.026,-0.0292,-0.0288,-0.0301,-0.0326,-0.0386,-0.0382,-0.0376,-0.0371,-0.0319,-0.0308,-0.0298,0,0,0,0,0,-0.0112,-0.0088,-0.0095,-0.0096,-0.0105,-0.011,-0.0111,-0.0137,-0.0175,-0.0164,-0.0174,-0.0259,-0.0264,-0.0288,-0.0304,-0.0332,-0.0384,-0.0378,-0.0371,-0.0324,-0.031,-0.0298,0,0,0,0,0,0,-0.0088,-0.0091,-0.01,-0.0082,-0.0091,-0.0118,-0.011,-0.0144,-0.0145,-0.016,-0.0214,-0.0225,-0.0241,-0.0264,-0.029,-0.0303,-0.0343,-0.0339,-0.0301,-0.0289,-0.0279,-0.0289,-0.039,0,0,0,0,0,-0.0071,-0.0049,-0.0066,-0.0053,-0.0053,-0.0087,-0.0093,-0.012,-0.0133,-0.0139,-0.0177,-0.0203,-0.022,-0.0234,-0.0257,-0.0256,-0.0269,-0.0279,-0.0269,-0.026,-0.0271,-0.0281,-0.0275,-0.0346,-0.0346,-0.0346,0,0,-0.0074,-0.0061,-0.0059,-0.0045,-0.0055,-0.0047,-0.0093,-0.0108,-0.0117,-0.0157,-0.0164,-0.0184,-0.0209,-0.0203,-0.0214,-0.0229,-0.023,-0.0252,-0.0245,-0.0261,-0.0274,-0.0268,-0.0263,-0.0341,-0.0342,-0.0343,0,0,-0.0051,-0.004,-0.0013,-0.0007,-0.0012,-0.0028,-0.0037,-0.0066,-0.0087,-0.0084,-0.0116,-0.0126,-0.0151,-0.0166,-0.0179,-0.0122,-0.0183,-0.0133,-0.0092,-0.01,-0.0096,-0.0093,-0.0042,-0.0035,-0.0119,-0.0118,-0.0118,0,-0.0048,-0.0013,-0.001,0.0024,0.0028,-0.002,-0.0007,-0.0028,-0.0053,-0.006,-0.0079,-0.01,-0.0141,-0.0137,-0.0104,-0.0113,-0.0092,-0.0149,-0.0092,-0.009,-0.0087,-0.0037,-0.003,-0.0115,-0.0115,-0.0116,-0.0116,0,-0.0017,0.0022,0.0038,0.0071,0.0079,0.008,0.0055,0.0045,0.0006,-0.0015,-0.003,-0.0047,-0.0058,-0.0073,-0.0075,-0.0071,-0.0049,-0.0091,-0.0139,-0.0078,-0.0026,-0.002,-0.011,-0.0111,-0.0112,-0.0113,0,0,-0.0038,0.0045,0.0049,0.0082,0.01,0.01,0.0103,0.0093,0.0082,0.0055,0.0049,0.0027,0.0006,-0.0006,-0.0024,-0.0028,0.0018,-0.0036,-0.0038,-0.0009,0.006,0.0081,0.009,-0.001,-0.001,-0.001,0.0109,0,-0.0017,0.0054,0.0088,0.0136,0.0167,0.0158,0.017,0.0153,0.0129,0.0119,0.0073,0.0061,0.0033,0.0031,0.0025,-0.0005,0.0029,-0.0007,0.0016,0.0018,0.0006,0.0094,0.0022,0.0121,0.0115,0.0116,0.0116,0,0.0004,0.0053,0.0103,0.0184,0.0193,0.0202,0.0209,0.0216,0.0197,0.0183,0.0167,0.0135,0.0121,0.0083,0.0082,0.0068,0.0083,0.0069,0.0073,0.0064,0.0047,0.0051,0.0132,0.0126,0.0125,0.0125,0.0124,0,-0.0016,0.0072,0.0108,0.0128,0.0194,0.0201,0.022,0.022,0.0225,0.0214,0.0215,0.0196,0.0169,0.0167,0.0129,0.0123,0.0129,0.0109,0.0161,0.0166,0.0091,0.0087,0.0137,0.0137,0.0137,0.0136,0.0136,0,0.0006,0.0039,0.0092,0.0112,0.0137,0.0192,0.0209,0.0222,0.0241,0.0254,0.024,0.0235,0.0184,0.0171,0.0164,0.0179,0.0161,0.0188,0.019,0.012,0.0117,0.0087,0.008,0.0141,0.014,0.0139,0.0138,0,-0.0016,0.0025,0.0074,0.0129,0.0132,0.0144,0.0197,0.0223,0.0244,0.0258,0.0259,0.0258,0.0251,0.0221,0.0206,0.0219,0.0225,0.0242,0.0194,0.0188,0.0283,0.0277,0.0354,0.0355,0.0356,0.0358,0.0359,0,-0.0017,0.0,0.0051,0.0071,0.0088,0.0115,0.0143,0.0192,0.0225,0.0268,0.0276,0.0279,0.0308,0.0313,0.0294,0.0328,0.027,0.0285,0.0247,0.0307,0.0302,0.0294,0.0287,0.0205,0.0204,0.0204,0.0204,0,-0.0032,-0.0025,0.0015,0.0051,0.0074,0.0118,0.016,0.0179,0.0248,0.0282,0.0325,0.0362,0.0375,0.0344,0.0365,0.0371,0.0269,0.0285,0.0332,0.0155,0.0174,0.0166,0.0163,0.0201,0.0201,0.0201,0.0202,0.0202,-0.0052,-0.0036,0.0014,0.0048,0.0084,0.0133,0.0166,0.0234,0.0294,0.037,0.0389,0.0434,0.0308,0.0351,0.0341,0.0334,0.0361,0.0294,0.0292,0.0291,0.0246,0.0264,0.0305,0.0306,0.0307,0.0307,0.0308,0,-0.0052,-0.0032,0.0016,0.0076,0.0124,0.0134,0.0196,0.025,0.0332,0.0385,0.047,0.0364,0.0368,0.0272,0.0276,0.0302,0.0299,0.0266,0.0192,0.0193,0.0195,0.0142,0.0176,0.0177,0.0177,0.0177,0,0,-0.004,-0.0012,0.0026,0.0099,0.0134,0.0188,0.0222,0.0298,0.0346,0.0398,0.0398,0.045,0.0304,0.0227,0.0185,0.0184,0.0218,0.0209,0.0303,0.0219,0.0222,0.0187,0.0105,0,0,0,0,0]}],[{"header":{"parameterUnit":"m.s-1","parameterCategory":2,"la1":30.2991,"la2":30.254,"lo1":-89.0895,"lo2":-89.0444,"dy":0.0017,"dx":0.0017,"nx":28,"ny":28,"refTime":"2023-08-05T21:00:00:Z","depth":"4","parameterNumber":2,"parameterNumberName":"U-component_of_CURRENTS"},"data":[0,0,0,0,0,0,0,0,0,0,0,0,0,0,0,0,0,0,0,0,0,0,0,0,0,0,0,0,0,0,0,0,0,0,0,0,0,0,0,0,0,0,0,0,0,0,0,0,0,0,0,0,0,0,0,0,0,0,-0.0821,-0.0821,0,-0.0848,-0.0847,-0.0847,-0.0834,-0.0833,-0.0833,-0.0833,-0.0882,-0.0883,-0.0884,0,0,0,0,0,0,0,0,0,0,0,0,0,-0.0738,-0.0739,-0.0821,-0.0822,-0.0822,-0.0848,-0.0847,-0.0847,-0.0834,-0.0833,-0.0833,-0.0833,-0.0881,-0.0883,-0.0884,0,0,0,0,0,0,0,0,0,0,0,0,0,-0.0765,-0.074,-0.082,-0.0823,-0.0824,-0.0848,-0.0847,-0.0847,-0.0834,-0.0833,-0.0833,-0.0833,-0.088,-0.0883,-0.0885,-0.0902,0,0,-0.0891,-0.0892,0,0,0,0,0,0,0,0,-0.0763,-0.0767,-0.0822,-0.0823,-0.0824,-0.0842,-0.0836,-0.0869,-0.0834,-0.0824,-0.0833,-0.0833,-0.0875,-0.0877,-0.0874,-0.0905,-0.0907,-0.0891,-0.0893,-0.0894,-0.0894,0,0,0,0,0,0,0,-0.0761,-0.0766,-0.0825,-0.0823,-0.0825,-0.0817,-0.082,-0.0842,-0.0846,-0.0824,-0.0825,-0.0838,-0.0874,-0.0872,-0.0875,-0.0907,-0.0891,-0.0893,-0.0895,-0.0895,-0.1057,-0.106,0,0,0,0,0,0,-0.0772,-0.0764,-0.0824,-0.0827,-0.0799,-0.0819,-0.0822,-0.0832,-0.0845,-0.0848,-0.0838,-0.0837,-0.0868,-0.0872,-0.0877,-0.1054,-0.0894,-0.0896,-0.0897,-0.1054,-0.1058,-0.1061,0,0,0,0,0,0,-0.077,-0.0777,-0.0823,-0.0801,-0.0807,-0.0822,-0.0832,-0.0833,-0.0874,-0.0856,-0.0859,-0.0885,-0.0868,-0.0874,-0.0932,-0.105,-0.0897,-0.0899,-0.1051,-0.1055,-0.106,-0.1309,0,0,0,0,0,0,-0.0767,-0.0776,-0.0793,-0.0802,-0.0809,-0.0848,-0.0833,-0.0834,-0.0883,-0.0883,-0.0897,-0.0898,-0.0868,-0.0929,-0.0934,-0.105,-0.09,-0.1047,-0.1053,-0.1058,-0.1297,-0.1322,-0.1343,0,0,0,0,0,-0.0764,-0.0771,-0.0793,-0.0801,-0.083,-0.085,-0.0852,-0.0857,-0.0886,-0.0896,-0.0924,-0.09,-0.0969,-0.0934,-0.0939,-0.1058,-0.1044,-0.1051,-0.1058,-0.1287,-0.1317,-0.1342,0,0,0,0,0,0,-0.0723,-0.0772,-0.0795,-0.0814,-0.0844,-0.085,-0.0865,-0.0894,-0.0926,-0.0939,-0.0936,-0.0939,-0.1045,-0.0999,-0.096,-0.1114,-0.1005,-0.1013,-0.1177,-0.1205,-0.1227,-0.121,-0.0902,0,0,0,0,0,-0.0733,-0.0758,-0.0801,-0.0814,-0.0842,-0.0875,-0.0893,-0.0905,-0.0933,-0.0948,-0.0967,-0.0997,-0.107,-0.1094,-0.1115,-0.1193,-0.1115,-0.1269,-0.1292,-0.1312,-0.1298,-0.1278,-0.1298,-0.1083,-0.1083,-0.1083,0,0,-0.0731,-0.075,-0.0773,-0.0811,-0.0838,-0.0879,-0.0884,-0.092,-0.0951,-0.0951,-0.1008,-0.1083,-0.1108,-0.1206,-0.1248,-0.1188,-0.1336,-0.132,-0.1338,-0.1312,-0.1287,-0.1308,-0.1326,-0.1088,-0.1087,-0.1087,0,0,-0.0723,-0.0756,-0.0788,-0.0805,-0.0855,-0.0892,-0.0925,-0.0971,-0.0989,-0.1066,-0.1106,-0.1233,-0.1291,-0.1351,-0.1392,-0.1542,-0.1466,-0.158,-0.1684,-0.1668,-0.1685,-0.1699,-0.1647,-0.1654,-0.1583,-0.1583,-0.1584,0,-0.0726,-0.0749,-0.0796,-0.0811,-0.0832,-0.0916,-0.0949,-0.0986,-0.1043,-0.1073,-0.1098,-0.1312,-0.1354,-0.1524,-0.1608,-0.1601,-0.1561,-0.1594,-0.1699,-0.1711,-0.1721,-0.1663,-0.1668,-0.1596,-0.1595,-0.1593,-0.1592,0,-0.0719,-0.0755,-0.0767,-0.0834,-0.087,-0.0899,-0.0969,-0.1016,-0.1099,-0.1154,-0.1332,-0.1444,-0.1584,-0.1654,-0.1698,-0.1849,-0.1789,-0.1743,-0.1634,-0.1758,-0.1689,-0.169,-0.1615,-0.161,-0.1606,-0.1603,0,0,-0.0707,-0.0761,-0.0772,-0.0803,-0.0874,-0.091,-0.097,-0.1059,-0.113,-0.1261,-0.1391,-0.1614,-0.1752,-0.1808,-0.1929,-0.1947,-0.204,-0.1912,-0.1905,-0.1867,-0.1993,-0.1748,-0.1723,-0.203,-0.2031,-0.2032,-0.1923,0,-0.0703,-0.0718,-0.0763,-0.0831,-0.0859,-0.0927,-0.0992,-0.1076,-0.1173,-0.1312,-0.15,-0.1709,-0.1792,-0.1973,-0.2015,-0.2041,-0.205,-0.2072,-0.1868,-0.1861,-0.1634,-0.1718,-0.2036,-0.1922,-0.1922,-0.1922,-0.1922,0,-0.0689,-0.0699,-0.0744,-0.0826,-0.0856,-0.0947,-0.106,-0.1141,-0.1317,-0.1418,-0.1652,-0.1796,-0.2019,-0.2046,-0.2105,-0.2126,-0.2095,-0.2058,-0.2052,-0.1723,-0.1615,-0.1763,-0.1921,-0.1921,-0.1921,-0.1921,-0.1921,0,-0.0643,-0.0698,-0.0738,-0.0751,-0.0869,-0.0944,-0.1067,-0.1199,-0.1283,-0.1574,-0.1674,-0.1914,-0.2075,-0.2094,-0.2077,-0.2124,-0.2009,-0.2037,-0.1761,-0.1742,-0.1885,-0.187,-0.2014,-0.2014,-0.2015,-0.2015,-0.2015,0,-0.0617,-0.0654,-0.0745,-0.0779,-0.0857,-0.0983,-0.1128,-0.1254,-0.1478,-0.1552,-0.1825,-0.1844,-0.2089,-0.205,-0.2053,-0.1872,-0.1984,-0.177,-0.1698,-0.1994,-0.1994,-0.1885,-0.1872,-0.2011,-0.2012,-0.2013,-0.2013,0,-0.0602,-0.0638,-0.0688,-0.0813,-0.0855,-0.096,-0.1176,-0.1255,-0.1502,-0.1609,-0.1738,-0.1839,-0.1738,-0.1835,-0.1789,-0.1777,-0.167,-0.1562,-0.1835,-0.1781,-0.1434,-0.1436,-0.1299,-0.129,-0.1282,-0.1275,-0.1269,0,-0.0589,-0.0617,-0.0704,-0.0716,-0.0809,-0.0957,-0.102,-0.1281,-0.1308,-0.1456,-0.1428,-0.1459,-0.1471,-0.1233,-0.1315,-0.1306,-0.1288,-0.1323,-0.1457,-0.1417,-0.1363,-0.1376,-0.1388,-0.1256,-0.1254,-0.1252,-0.125,0,-0.0566,-0.0617,-0.0652,-0.0673,-0.0745,-0.0769,-0.087,-0.092,-0.1125,-0.1299,-0.1154,-0.1176,-0.0993,-0.0971,-0.0994,-0.0961,-0.1387,-0.124,-0.126,-0.1386,-0.1363,-0.132,-0.1341,-0.1222,-0.1226,-0.1229,-0.123,0,-0.0543,-0.0541,-0.0578,-0.0597,-0.0621,-0.058,-0.0673,-0.0658,-0.0757,-0.0949,-0.0777,-0.0792,-0.0832,-0.076,-0.0697,-0.0743,-0.0776,-0.0903,-0.0942,-0.0974,-0.0927,-0.0854,-0.0481,0,0,0,0,0,-0.0486,-0.0463,-0.0476,-0.046,-0.0472,-0.0478,-0.0516,-0.0596,-0.0736,-0.061,-0.0763,-0.0582,-0.0565,-0.0485,-0.0469,-0.0526,-0.078,-0.0511,-0.0948,-0.1066,-0.1099,-0.1078,0,0,0,0,0,0,-0.0435,-0.0439,-0.0438,-0.0323,-0.0298,-0.0275,-0.0311,-0.0398,-0.031,-0.0467,-0.0385,-0.0549,-0.0444,-0.0544,-0.0441,-0.0451,-0.0727,-0.0535,-0.0535,-0.1048,-0.1078,-0.1104,-0.1094,0,0,0,0,0]},{"header":{"parameterUnit":"m.s-1","parameterCategory":2,"la1":30.2991,"la2":30.254,"lo1":-89.0895,"lo2":-89.0444,"dy":0.0017,"dx":0.0017,"nx":28,"ny":28,"refTime":"2023-08-05T21:00:00:Z","depth":"4","parameterNumber":3,"parameterNumberName":"V-component_of_CURRENTS"},"data":[0,0,0,0,0,0,0,0,0,0,0,0,0,0,0,0,0,0,0,0,0,0,0,0,0,0,0,0,0,0,0,0,0,0,0,0,0,0,0,0,0,0,0,0,0,0,0,0,0,0,0,0,0,0,0,0,0,0,-0.0154,-0.0153,0,-0.01,-0.01,-0.01,-0.0059,-0.0058,-0.0058,-0.0057,-0.002,-0.002,-0.0019,0,0,0,0,0,0,0,0,0,0,0,0,0,-0.0186,-0.0186,-0.0154,-0.0153,-0.0152,-0.01,-0.01,-0.01,-0.0059,-0.0058,-0.0057,-0.0057,-0.002,-0.002,-0.0019,0,0,0,0,0,0,0,0,0,0,0,0,0,-0.016,-0.0186,-0.0154,-0.0123,-0.0119,-0.01,-0.01,-0.0099,-0.0059,-0.0058,-0.0057,-0.0056,-0.002,-0.002,-0.0019,-0.0037,0,0,-0.0018,-0.0017,0,0,0,0,0,0,0,0,-0.0161,-0.0159,-0.0129,-0.0125,-0.0121,-0.0082,-0.0098,-0.0078,-0.0059,-0.0086,-0.0057,-0.0056,-0.0041,-0.0039,-0.0035,-0.0035,-0.0033,-0.0018,-0.0017,-0.0017,-0.0017,0,0,0,0,0,0,0,-0.0163,-0.0161,-0.0136,-0.0127,-0.0123,-0.01,-0.0095,-0.0094,-0.0073,-0.0083,-0.0079,-0.0068,-0.0039,-0.0036,-0.0034,-0.0033,-0.0018,-0.0017,-0.0017,-0.0017,-0.0065,-0.0066,0,0,0,0,0,0,-0.0166,-0.0163,-0.0138,-0.0134,-0.0135,-0.01,-0.0095,-0.0099,-0.0072,-0.0066,-0.0069,-0.0067,-0.0037,-0.0035,-0.0033,-0.0032,-0.0017,-0.0017,-0.0016,-0.0063,-0.0065,-0.0067,0,0,0,0,0,0,-0.0167,-0.0165,-0.014,-0.0143,-0.0138,-0.01,-0.0104,-0.0098,-0.0091,-0.0061,-0.0055,-0.0068,-0.0037,-0.0034,-0.0046,-0.0031,-0.0016,-0.0016,-0.0061,-0.0064,-0.0066,-0.0044,0,0,0,0,0,0,-0.0169,-0.0166,-0.0165,-0.0144,-0.0138,-0.0133,-0.0105,-0.0097,-0.0084,-0.008,-0.0058,-0.0053,-0.0036,-0.0047,-0.0045,-0.003,-0.0016,-0.0059,-0.0062,-0.0065,-0.0043,-0.0045,-0.0047,0,0,0,0,0,-0.0171,-0.0175,-0.0166,-0.0162,-0.014,-0.0133,-0.0129,-0.0099,-0.0085,-0.0089,-0.0083,-0.0054,-0.0064,-0.0048,-0.0046,-0.003,-0.0058,-0.0061,-0.0065,-0.0041,-0.0045,-0.0047,0,0,0,0,0,0,-0.0185,-0.017,-0.016,-0.0158,-0.0148,-0.0125,-0.0119,-0.0105,-0.0102,-0.0104,-0.0075,-0.0072,-0.0072,-0.0074,-0.0057,-0.006,-0.0056,-0.0059,-0.0039,-0.0042,-0.0045,-0.0015,-0.0015,0,0,0,0,0,-0.019,-0.0194,-0.0174,-0.0175,-0.017,-0.0148,-0.0139,-0.013,-0.0122,-0.0119,-0.0103,-0.0098,-0.0088,-0.0084,-0.0082,-0.0089,-0.0051,-0.0082,-0.0085,-0.0086,-0.0066,0.0021,0.0031,-0.0078,-0.0078,-0.0078,0,0,-0.0198,-0.0187,-0.019,-0.0179,-0.0168,-0.0188,-0.0141,-0.0142,-0.0166,-0.0118,-0.0143,-0.0105,-0.0095,-0.0094,-0.0094,-0.009,-0.005,-0.0091,-0.0091,-0.0069,0.0019,0.0031,0.0041,-0.0081,-0.008,-0.008,0,0,-0.0221,-0.0207,-0.022,-0.022,-0.0209,-0.0211,-0.0215,-0.0201,-0.0197,-0.0219,-0.0179,-0.0148,-0.0152,-0.0123,-0.0114,-0.0141,-0.0064,-0.0129,-0.0107,-0.0023,-0.0011,-0.0,0.0018,0.0031,-0.0128,-0.0128,-0.0128,0,-0.0225,-0.0242,-0.0222,-0.0238,-0.0253,-0.023,-0.0265,-0.0266,-0.0261,-0.0268,-0.0239,-0.0201,-0.0174,-0.0151,-0.0122,-0.0142,-0.0078,-0.0086,-0.0018,-0.0006,0.0005,0.0021,0.0035,-0.0127,-0.0128,-0.0128,-0.0128,0,-0.026,-0.0277,-0.0286,-0.0313,-0.0334,-0.0354,-0.0365,-0.0378,-0.0372,-0.0367,-0.0341,-0.0277,-0.0233,-0.0217,-0.0155,-0.0063,-0.0042,-0.0024,0.0007,0.0019,0.0032,0.0046,-0.0127,-0.0127,-0.0127,-0.0127,0,0,-0.0269,-0.0301,-0.0308,-0.0341,-0.0376,-0.0403,-0.0455,-0.0488,-0.0517,-0.0473,-0.0475,-0.0386,-0.0288,-0.0265,-0.0171,-0.0072,0.0068,0.003,0.0034,0.0077,0.0254,0.0092,0.0092,0.0152,0.0155,0.0158,0.0218,0,-0.0301,-0.0342,-0.037,-0.0453,-0.0481,-0.0509,-0.0565,-0.06,-0.0603,-0.06,-0.0505,-0.0455,-0.0328,-0.0243,-0.0123,0.0032,0.0118,0.0049,0.021,0.0213,0.0096,0.0107,0.0169,0.0229,0.0232,0.0234,0.0236,0,-0.0334,-0.0357,-0.0429,-0.0519,-0.054,-0.061,-0.0698,-0.0733,-0.0736,-0.0707,-0.0617,-0.0523,-0.0346,-0.0242,0.0028,0.0009,0.0157,0.0254,0.0258,0.012,0.0079,0.0221,0.0262,0.026,0.0258,0.0257,0.0255,0,-0.0346,-0.0414,-0.0477,-0.0505,-0.0598,-0.0666,-0.0721,-0.0775,-0.0794,-0.0734,-0.0703,-0.0532,-0.0403,-0.0182,0.0043,0.01,0.0286,0.0351,0.0305,0.0292,0.0416,0.0405,0.0525,0.0525,0.0525,0.0525,0.0525,0,-0.0371,-0.0427,-0.0493,-0.0533,-0.0636,-0.0696,-0.08,-0.0818,-0.0828,-0.0826,-0.0708,-0.0624,-0.0346,-0.0215,0.0002,0.0163,0.0249,0.0313,0.0311,0.041,0.0397,0.0424,0.0411,0.0527,0.0526,0.0526,0.0526,0,-0.0393,-0.0419,-0.0499,-0.0602,-0.0648,-0.0722,-0.0836,-0.0882,-0.0871,-0.085,-0.0794,-0.0649,-0.0464,-0.032,-0.0024,0.0077,0.0242,0.0263,0.0279,0.0275,0.0212,0.02,0.0271,0.0266,0.0262,0.0259,0.0256,0,-0.0409,-0.0441,-0.0549,-0.0602,-0.0666,-0.0771,-0.084,-0.0881,-0.087,-0.0843,-0.0783,-0.068,-0.0566,-0.0326,-0.0156,0.0058,0.0109,0.0165,0.0295,0.0203,0.0195,0.0188,0.0181,0.0249,0.0248,0.0247,0.0246,0,-0.0439,-0.0472,-0.0531,-0.0617,-0.0709,-0.079,-0.085,-0.0844,-0.0845,-0.0855,-0.0723,-0.0637,-0.0526,-0.0325,-0.0257,-0.0057,0.0125,0.0124,0.0139,0.0262,0.0177,0.0171,0.0169,0.0232,0.0234,0.0235,0.0236,0,-0.0461,-0.0495,-0.0549,-0.0616,-0.0724,-0.0763,-0.0813,-0.0784,-0.0781,-0.072,-0.0679,-0.0591,-0.0522,-0.039,-0.0276,-0.019,-0.0084,0.0031,0.0053,0.007,-0.0024,-0.0164,-0.0208,0,0,0,0,0,-0.0465,-0.0472,-0.0543,-0.0604,-0.0702,-0.0743,-0.0791,-0.0807,-0.0802,-0.0699,-0.0683,-0.0574,-0.046,-0.039,-0.0315,-0.0339,-0.0094,-0.025,0.0045,0.0152,0.0169,0.0076,0,0,0,0,0,0,-0.0468,-0.0514,-0.0516,-0.0557,-0.0601,-0.0685,-0.0717,-0.0719,-0.062,-0.0617,-0.053,-0.0537,-0.0402,-0.0489,-0.03,-0.0286,-0.0084,-0.0206,-0.0204,0.0143,0.0158,0.0171,0.0082,0,0,0,0,0]}]]